TimeEDT,TemperatureF,Dew PointF,Humidity,Sea Level PressureIn,VisibilityMPH,Wind Direction,Wind SpeedMPH,Gust SpeedMPH,PrecipitationIn,Events,Conditions,WindDirDegrees,DateUTC
12:56 AM,36.0,34.0,93,29.59,10.0,WSW,13.8,-,0.01,,Overcast,240,2012-11-01 04:56:00
1:56 AM,35.1,33.1,92,29.59,10.0,SW,12.7,-,0.02,,Overcast,230,2012-11-01 05:56:00
2:29 AM,35.6,33.8,93,29.55,10.0,SW,12.7,-,N/A,,Overcast,230,2012-11-01 06:29:00
2:56 AM,35.1,34.0,96,29.59,10.0,WSW,12.7,-,N/A,,Overcast,240,2012-11-01 06:56:00
3:56 AM,36.0,34.0,93,29.59,10.0,WSW,12.7,-,N/A,,Overcast,240,2012-11-01 07:56:00
4:56 AM,36.0,35.1,97,29.58,7.0,WSW,12.7,-,N/A,,Overcast,240,2012-11-01 08:56:00
5:56 AM,37.0,35.1,93,29.59,4.0,WSW,13.8,-,N/A,,Overcast,250,2012-11-01 09:56:00
6:56 AM,37.0,35.1,93,29.59,4.0,WSW,12.7,-,0.01,,Overcast,250,2012-11-01 10:56:00
8:56 AM,37.0,35.1,93,29.62,10.0,WSW,13.8,-,N/A,,Overcast,250,2012-11-01 12:56:00
9:56 AM,37.0,35.1,93,29.64,7.0,WSW,13.8,-,N/A,,Overcast,250,2012-11-01 13:56:00
10:56 AM,37.9,35.1,89,29.64,10.0,WSW,13.8,20.7,N/A,,Overcast,250,2012-11-01 14:56:00
11:08 AM,37.4,35.6,93,29.61,10.0,WSW,11.5,24.2,N/A,,Overcast,250,2012-11-01 15:08:00
12:56 PM,39.0,37.0,93,29.64,7.0,West,15.0,-,N/A,,Overcast,260,2012-11-01 16:56:00
1:56 PM,39.0,37.0,93,29.63,9.0,WSW,13.8,21.9,N/A,,Overcast,250,2012-11-01 17:56:00
2:56 PM,39.0,37.0,93,29.63,7.0,WSW,16.1,-,N/A,,Overcast,250,2012-11-01 18:56:00
3:56 PM,37.9,36.0,93,29.64,9.0,WSW,16.1,-,N/A,,Overcast,250,2012-11-01 19:56:00
4:56 PM,39.0,36.0,89,29.65,10.0,West,12.7,-,0.00,,Overcast,260,2012-11-01 20:56:00
5:56 PM,37.9,36.0,93,29.66,7.0,West,12.7,19.6,0.01,Rain,Light Rain,260,2012-11-01 21:56:00
6:56 PM,37.9,36.0,93,29.68,8.0,West,15.0,-,0.00,,Overcast,270,2012-11-01 22:56:00
7:56 PM,37.0,35.1,93,29.70,8.0,West,12.7,-,0.02,,Overcast,260,2012-11-01 23:56:00
8:56 PM,37.0,35.1,93,29.71,9.0,West,12.7,-,0.00,,Overcast,270,2012-11-02 00:56:00
9:56 PM,36.0,34.0,93,29.72,10.0,West,12.7,-,N/A,,Overcast,260,2012-11-02 01:56:00
10:56 PM,36.0,33.1,89,29.72,10.0,West,11.5,-,N/A,,Overcast,260,2012-11-02 02:56:00
11:08 PM,35.6,33.8,93,29.68,10.0,West,9.2,-,N/A,,Overcast,260,2012-11-02 03:08:00
11:33 PM,35.6,33.8,93,29.68,10.0,West,9.2,-,N/A,,Overcast,260,2012-11-02 03:33:00
11:41 PM,35.6,33.8,93,29.68,10.0,WSW,11.5,-,N/A,,Overcast,250,2012-11-02 03:41:00
11:56 PM,35.1,33.1,92,29.71,10.0,West,12.7,-,N/A,,Overcast,260,2012-11-02 03:56:00